Theta_e
293 288 286 291 291 292 286 285 285 289 292 290 290 292 295 298 295 293 294 297 297 294 300 300 297 298 298 297 295 294 293 293 293 291 290 290 290 289 287 287 289 288 287 287
289 286 292 292 291 290 289 288 288 291 293 289 290 291 294 295 297 298 297 297 297 299 300 301 295 295 297 297 295 294 293 292 293 293 293 291 291 286 289 288 288 288 287 286
289 290 295 292 290 289 288 287 288 288 289 288 287 288 289 292 296 298 298 299 299 299 299 301 294 294 296 296 294 293 293 292 293 293 291 286 286 285 284 286 287 287 287 286
288 294 292 290 289 290 287 291 291 289 284 283 286 282 286 289 291 293 295 297 298 299 300 300 293 292 294 296 294 293 293 292 293 292 290 290 289 288 289 289 286 285 286 285
288 288 288 288 291 291 290 290 288 286 283 282 283 281 285 289 289 291 295 295 297 299 297 297 294 295 295 295 293 293 292 292 292 291 291 290 289 289 285 284 284 284 284 284
289 291 291 290 290 290 290 287 286 283 282 280 284 283 283 285 289 291 294 296 297 298 300 294 293 293 292 291 292 292 291 291 291 290 290 289 289 285 283 283 284 284 284 283
285 287 289 291 287 288 288 284 278 276 275 278 284 281 288 288 290 292 293 294 296 297 298 290 291 291 291 290 290 290 290 289 290 289 289 289 289 286 286 285 285 284 283 282
281 282 287 289 290 286 286 286 279 271 276 281 280 279 285 291 293 293 293 295 295 292 292 292 292 292 290 290 290 290 289 289 289 288 289 289 289 288 287 285 286 285 285 284
281 283 287 289 289 290 284 282 289 279 268 272 281 285 290 288 290 291 292 292 289 290 291 292 290 290 290 290 290 290 289 290 289 289 289 289 288 288 286 285 285 285 284 284
288 283 288 285 286 286 286 288 280 280 272 270 279 280 284 289 291 291 290 290 290 290 290 291 290 289 289 289 289 289 289 289 289 289 289 288 287 287 287 284 283 283 283 282
290 287 286 284 284 286 282 282 283 283 282 279 278 282 293 291 289 288 290 290 290 290 290 291 291 290 289 288 288 288 288 288 288 288 288 288 287 286 286 283 283 282 281 281
291 288 284 286 290 286 286 286 287 282 281 283 283 283 295 295 295 294 295 291 290 290 291 291 291 291 289 288 288 289 289 288 289 288 287 287 285 284 285 283 282 281 281 280
292 287 282 283 286 289 287 289 287 288 286 282 280 282 295 295 294 294 289 291 293 292 290 291 292 291 291 291 290 289 289 289 289 287 285 284 283 283 284 283 282 281 280 279
297 290 286 282 286 288 283 286 288 286 282 282 282 284 289 292 293 295 295 296 296 295 295 298 295 292 292 292 291 289 289 288 286 285 285 284 284 284 284 283 280 280 279 278
293 286 287 288 289 289 289 288 288 286 286 282 285 285 289 291 293 295 296 296 294 294 294 294 293 293 292 290 290 289 289 288 287 286 285 285 284 284 283 280 279 279 278 278
286 282 285 284 287 286 284 287 287 287 288 288 288 287 294 295 296 296 297 297 297 297 298 298 295 293 291 292 292 288 289 287 286 286 285 285 283 282 281 279 279 278 277 276
282 282 280 276 284 284 280 285 286 287 289 288 284 290 294 293 294 294 295 293 290 289 289 290 292 292 291 290 288 287 288 285 284 285 285 283 282 280 279 278 278 277 276 275
280 279 279 276 279 271 283 290 290 288 289 291 290 285 286 287 290 292 289 287 287 288 288 288 288 289 290 288 287 285 282 282 284 284 283 281 279 279 277 276 276 276 275 274
283 280 278 275 276 281 285 285 282 283 282 283 282 282 282 284 286 285 287 287 287 287 288 288 286 286 287 286 283 283 280 281 281 281 281 279 279 277 275 275 275 275 274 274
279 281 279 277 273 271 276 281 281 282 278 278 282 281 281 281 275 279 285 286 286 287 287 285 286 284 285 286 280 280 279 278 278 278 278 276 278 277 275 276 275 275 274 274
264 265 266 270 271 275 277 278 281 275 271 278 281 280 280 277 280 283 285 285 286 286 286 287 286 284 283 281 278 278 276 276 276 275 275 275 276 276 276 275 275 274 274 273
267 265 268 268 264 265 278 277 270 275 280 282 280 280 278 279 280 281 282 282 283 284 284 285 285 285 286 280 276 278 276 276 273 273 273 274 274 275 274 273 273 272 272 271
265 271 268 270 270 276 278 278 280 282 277 278 278 279 277 276 277 278 279 280 281 282 283 284 283 284 285 282 278 276 277 273 273 272 274 273 274 274 273 272 272 271 272 271
269 275 268 268 272 275 276 279 280 280 278 278 277 275 275 275 276 276 275 276 277 277 278 280 280 281 281 285 280 279 278 275 274 275 274 273 273 272 272 272 272 271 270 270
272 273 270 270 274 275 276 277 277 277 276 274 275 274 274 273 272 273 273 273 274 275 276 276 277 278 278 281 283 283 279 276 275 275 273 272 273 272 271 272 271 272 272 272
275 273 270 269 275 275 275 277 275 272 271 271 271 271 272 272 271 271 271 272 272 271 272 270 270 272 273 275 277 281 281 276 275 273 272 271 271 270 270 270 270 276 275 276
Wind_Speed
4 5 12 21 17 15 2 6 7 9 6 5 11 18 20 21 11 13 15 19 17 16 24 12 11 14 14 14 16 19 19 18 15 10 10 8 12 8 5 6 9 9 8 7
2 12 18 7 6 9 12 17 22 18 20 7 16 24 17 14 20 19 17 20 22 18 20 17 10 11 17 20 21 20 21 20 17 13 11 7 9 4 7 7 8 10 10 8
16 10 12 12 9 11 13 14 19 18 6 6 11 22 16 12 21 23 22 21 20 21 21 21 10 13 14 17 20 21 23 22 20 17 9 4 5 3 4 7 7 8 10 8
9 11 14 8 9 15 16 14 15 14 2 11 3 32 7 8 15 13 17 18 19 20 21 18 10 10 14 19 17 19 19 20 18 17 15 17 11 11 10 9 5 6 9 9
10 4 6 11 21 10 14 5 6 3 5 5 7 11 6 12 12 14 17 14 17 20 15 19 15 14 15 14 17 17 18 18 18 18 17 15 13 9 3 5 9 8 8 9
12 3 6 10 6 8 2 3 4 5 2 15 13 12 5 7 11 7 10 16 16 18 21 11 9 7 8 9 13 15 18 18 17 17 16 18 18 9 7 8 10 8 7 7
3 7 5 6 3 3 4 6 5 5 1 15 9 10 21 6 6 12 13 14 15 16 16 5 9 10 12 16 16 15 18 18 17 19 19 19 18 16 17 13 12 12 9 8
2 15 9 5 12 10 11 12 9 10 12 19 4 13 13 13 11 10 12 13 14 11 8 10 11 10 11 14 14 15 17 17 18 18 20 16 16 11 11 13 10 11 11 11
6 15 2 5 4 10 4 8 16 2 1 2 8 15 14 6 8 8 11 13 12 13 9 10 6 8 10 14 18 18 16 15 17 18 15 16 14 15 14 13 11 10 9 9
5 13 7 3 2 3 8 4 3 1 4 8 11 7 16 16 14 10 10 12 12 9 10 8 5 8 7 7 8 10 13 18 14 15 15 15 15 15 13 9 13 12 10 11
2 2 19 1 7 12 1 4 5 3 6 15 18 16 28 16 9 8 11 10 9 10 10 8 7 6 6 6 8 11 12 13 12 14 15 15 14 14 13 12 12 12 11 13
5 7 11 25 14 3 4 12 13 13 14 12 17 18 28 31 25 18 24 14 7 6 9 8 7 7 8 8 10 15 15 16 19 16 14 15 11 12 14 13 14 13 14 13
7 3 6 4 10 14 15 22 17 18 18 24 24 21 28 24 24 17 12 12 14 10 8 6 6 9 10 11 13 14 13 17 13 11 13 11 12 14 17 16 14 15 14 13
9 18 18 21 21 11 9 12 22 22 19 24 23 25 23 32 28 31 18 19 18 14 12 16 12 10 9 10 12 12 12 14 11 12 14 16 17 18 16 14 14 15 14 15
9 23 22 25 30 29 30 30 27 26 27 27 25 30 25 28 32 30 16 18 8 13 12 11 10 10 10 9 11 11 15 12 14 15 16 19 16 14 14 14 15 15 15 15
7 8 13 20 22 25 29 30 33 35 37 37 37 34 28 29 27 29 26 24 19 15 13 16 18 15 14 12 13 9 11 12 13 15 17 15 13 14 15 14 15 15 15 14
12 9 11 23 19 18 22 27 33 34 33 29 32 34 25 27 26 25 20 15 16 16 16 20 15 13 12 12 9 10 12 8 13 15 14 14 14 15 15 14 14 15 15 14
19 21 13 20 23 33 23 16 24 31 33 32 22 18 19 19 21 11 20 18 18 17 17 16 15 15 15 11 11 9 4 8 11 12 11 12 14 14 14 15 15 14 13 15
22 20 11 13 21 21 11 8 10 11 4 13 13 15 19 25 20 11 22 19 16 16 14 13 9 8 11 13 13 11 4 6 7 8 11 12 13 13 14 15 15 13 13 13
16 12 14 19 24 25 6 13 18 13 12 21 13 17 19 21 15 14 24 21 21 18 14 16 15 10 11 13 7 8 6 2 2 3 3 4 9 11 13 14 14 12 12 11
5 6 7 13 17 10 13 16 17 7 13 21 11 16 16 13 10 20 20 16 17 14 18 18 15 11 11 12 8 6 6 4 2 5 6 7 6 8 8 10 9 11 11 11
6 4 9 5 5 11 22 17 6 12 11 8 9 10 13 15 20 18 18 19 17 17 15 16 18 16 12 7 6 12 7 3 2 7 6 6 8 7 8 11 10 11 12 12
5 6 4 3 7 20 13 8 14 1 4 5 9 12 14 14 15 16 15 16 18 18 15 15 16 19 16 7 6 9 6 1 1 5 8 9 9 8 9 11 12 10 12 11
5 8 4 5 8 13 17 15 8 5 9 9 5 9 12 14 15 16 16 17 15 15 16 16 17 18 17 14 6 8 6 5 4 6 7 7 13 13 12 9 10 10 11 10
8 1 7 11 17 18 13 9 3 8 3 9 12 12 12 11 16 16 17 18 17 17 15 16 16 17 19 17 16 12 7 7 8 8 7 8 9 11 11 13 13 13 13 16
13 18 13 16 18 14 17 12 7 3 7 8 11 14 16 14 17 16 16 16 16 17 16 16 19 20 19 16 18 18 8 9 10 10 8 9 9 9 10 9 6 18 17 24
Wind_Direction
198 133 207 222 212 234 203 227 243 256 247 225 229 236 247 265 262 252 253 253 250 244 252 246 209 201 195 191 186 185 178 180 171 173 174 185 197 192 189 180 183 176 178 172
158 214 225 235 208 221 242 257 262 270 264 212 259 258 249 249 261 256 247 257 251 251 258 251 208 187 189 192 191 184 186 178 183 181 183 185 177 184 190 188 187 184 180 174
219 224 212 216 230 241 227 232 251 256 301 248 289 268 249 244 250 265 262 249 258 247 249 254 208 200 196 195 190 186 185 183 184 178 158 105 94 74 163 197 191 191 179 173
237 239 215 187 217 215 256 227 254 261 285 272 124 293 194 230 243 243 252 256 244 248 252 257 209 200 195 203 191 188 183 181 184 172 175 183 189 191 203 196 177 172 179 179
243 208 189 221 234 179 252 166 231 215 214 338 181 269 147 201 249 247 253 248 257 259 245 242 219 208 204 184 185 183 180 181 181 181 183 186 197 200 139 139 155 177 185 182
239 203 188 210 193 204 98 59 37 65 119 263 199 208 94 179 212 241 252 253 248 254 260 240 214 179 180 172 176 180 181 184 181 180 185 193 197 171 159 164 177 183 185 188
312 227 213 160 224 139 131 90 301 324 6 254 191 218 250 275 215 214 237 256 253 251 253 243 190 192 177 181 178 177 180 187 182 183 191 194 196 188 188 182 182 175 181 190
262 292 176 179 200 192 205 186 179 204 248 269 106 251 262 220 237 228 236 257 270 281 239 215 209 191 182 183 184 182 184 187 189 191 199 198 200 195 196 189 189 190 193 193
207 268 167 198 163 152 176 179 234 326 108 19 246 276 287 229 270 310 277 279 263 263 258 243 219 191 182 183 188 189 187 196 195 197 194 199 196 198 198 189 187 188 182 174
279 269 225 151 121 278 183 167 117 186 203 247 268 248 259 284 285 289 295 300 297 312 289 271 230 202 199 188 181 187 190 201 196 195 199 197 197 200 195 178 187 184 174 165
78 326 270 166 210 234 181 248 230 181 195 246 261 263 278 277 273 260 298 286 291 304 285 247 240 228 205 182 184 195 198 198 200 197 200 200 197 190 190 187 187 179 166 170
170 175 235 263 261 301 271 265 241 235 244 233 254 255 264 268 269 272 289 289 295 280 261 280 228 200 209 206 199 206 200 202 204 197 194 202 187 182 188 190 185 172 175 176
182 222 267 260 291 250 230 245 241 256 259 249 253 250 257 270 271 260 240 264 285 281 289 262 253 236 223 217 217 216 210 217 207 186 188 187 187 189 197 193 182 175 171 174
238 246 238 253 264 279 266 224 238 242 254 252 246 260 262 271 265 271 265 268 273 272 268 272 271 243 234 228 218 207 215 210 196 195 191 198 198 199 197 189 176 174 172 168
244 241 234 244 251 254 256 265 259 251 246 249 253 250 246 256 270 276 281 283 278 279 275 282 281 273 248 225 233 225 222 201 194 199 202 209 204 197 187 177 173 170 172 177
313 287 296 282 272 257 250 248 252 261 259 260 261 260 262 260 266 277 278 283 285 277 275 271 261 255 254 249 242 228 229 218 196 203 209 203 190 182 183 177 173 170 175 173
266 272 284 278 289 297 275 257 259 258 261 256 258 256 267 268 262 270 299 359 25 13 6 348 318 283 273 264 242 243 233 196 192 205 205 192 181 181 178 173 171 175 174 165
252 264 256 272 272 268 272 237 238 250 257 266 291 4 5 344 320 350 33 16 358 343 345 340 336 335 328 305 296 278 240 208 204 203 188 180 177 177 169 168 174 171 170 173
229 244 265 255 256 280 284 10 350 338 62 28 359 6 1 353 325 61 16 359 334 326 312 306 292 302 311 317 321 306 253 197 175 192 193 181 176 171 168 174 174 167 168 173
317 295 270 285 280 273 50 5 316 294 217 360 346 2 360 356 345 327 335 325 319 321 319 318 313 314 321 320 319 306 295 258 237 97 131 157 168 172 178 172 170 164 168 164
336 328 268 278 276 276 17 5 332 277 331 326 336 345 338 337 316 305 314 316 312 321 323 324 320 316 311 316 320 286 279 262 143 106 134 137 145 157 163 153 158 152 157 150
283 284 300 325 308 252 8 345 356 287 311 299 336 322 321 319 309 305 305 306 305 304 313 317 310 309 317 308 309 300 293 207 157 134 122 136 129 140 150 152 154 152 155 155
268 197 229 192 253 295 309 289 300 331 311 330 318 317 321 311 299 308 307 309 308 309 314 310 306 306 313 303 243 270 276 244 151 141 164 151 142 149 157 159 160 163 167 170
271 257 219 300 258 270 288 291 261 341 327 320 292 295 304 302 308 313 311 301 299 303 310 308 304 303 302 302 261 248 254 171 191 222 196 177 165 168 172 170 171 173 176 178
230 274 239 267 279 278 272 283 359 307 319 317 314 308 304 311 300 306 304 305 305 311 316 306 306 308 303 308 304 288 237 180 206 223 211 196 189 190 184 186 185 187 194 186
240 249 255 260 274 288 287 303 341 287 311 303 289 295 298 303 296 300 291 294 301 300 306 305 298 293 297 305 305 304 278 204 215 211 204 208 191 189 183 184 190 212 193 193